Time,TemperatureF,DewpointF,PressureIn,WindDirection,WindDirectionDegrees,WindSpeedMPH,WindSpeedGustMPH,Humidity,HourlyPrecipIn,Conditions,Clouds,dailyrainin,SolarRadiationWatts/m^2,SoftwareType,DateUTC
2013-10-09 00:05:00,51.0,47.0,30.51,WNW,297,1.0,9.0,85,0.00,,,0.00,0.000000,,2013-10-09 04:05:00,
2013-10-09 00:10:00,50.0,48.0,30.45,SSW,199,0.0,7.0,92,0.00,,,0.00,0.000000,,2013-10-09 04:10:00,
2013-10-09 00:44:00,50.0,48.0,30.45,SSW,199,0.0,7.0,92,0.00,,,0.00,0.000000,,2013-10-09 04:44:00,
2013-10-09 00:54:00,50.0,48.0,30.45,SSW,199,0.0,7.0,92,0.00,,,0.00,0.000000,,2013-10-09 04:54:00,
2013-10-09 01:04:00,50.0,48.0,30.45,SSW,199,0.0,7.0,92,0.00,,,0.00,0.000000,,2013-10-09 05:04:00,
2013-10-09 01:10:00,48.0,46.0,30.47,NNE,12,1.0,3.0,94,0.00,,,-99.99,0.000000,,2013-10-09 05:10:00,
2013-10-09 01:42:00,48.0,46.0,30.47,NNE,12,1.0,3.0,94,0.00,,,-99.99,0.000000,,2013-10-09 05:42:00,
2013-10-09 01:52:00,48.0,46.0,30.47,NNE,12,1.0,3.0,94,0.00,,,-99.99,0.000000,,2013-10-09 05:52:00,
2013-10-09 02:02:00,48.0,46.0,30.47,NNE,12,1.0,3.0,94,0.00,,,-99.99,0.000000,,2013-10-09 06:02:00,
2013-10-09 02:10:00,48.0,47.0,30.51,NNW,339,1.0,4.0,95,0.00,,,0.00,0.000000,,2013-10-09 06:10:00,
2013-10-09 02:42:00,48.0,47.0,30.51,NNW,339,1.0,4.0,95,0.00,,,0.00,0.000000,,2013-10-09 06:42:00,
2013-10-09 02:52:00,48.0,47.0,30.51,NNW,339,1.0,4.0,95,0.00,,,0.00,0.000000,,2013-10-09 06:52:00,
2013-10-09 03:02:00,48.0,47.0,30.51,NNW,339,1.0,4.0,95,0.00,,,0.00,0.000000,,2013-10-09 07:02:00,
2013-10-09 03:10:00,47.0,46.0,30.53,South,174,1.0,5.0,96,0.00,,,0.00,0.000000,,2013-10-09 07:10:00,
2013-10-09 03:42:00,47.0,46.0,30.53,South,174,1.0,5.0,96,0.00,,,0.00,0.000000,,2013-10-09 07:42:00,
2013-10-09 03:52:00,47.0,46.0,30.53,South,174,1.0,5.0,96,0.00,,,0.00,0.000000,,2013-10-09 07:52:00,
2013-10-09 04:02:00,47.0,46.0,30.53,South,174,1.0,5.0,96,0.00,,,0.00,0.000000,,2013-10-09 08:02:00,
2013-10-09 04:10:00,46.0,45.0,30.50,NNE,33,1.0,7.0,96,0.00,,,0.00,0.000000,,2013-10-09 08:10:00,
2013-10-09 04:42:00,46.0,45.0,30.50,NNE,33,1.0,7.0,96,0.00,,,0.00,0.000000,,2013-10-09 08:42:00,
2013-10-09 04:53:00,46.0,45.0,30.50,NNE,33,1.0,7.0,96,0.00,,,0.00,0.000000,,2013-10-09 08:53:00,
2013-10-09 05:02:00,46.0,45.0,30.50,NNE,33,1.0,7.0,96,0.00,,,0.00,0.000000,,2013-10-09 09:02:00,
2013-10-09 05:10:00,48.0,47.0,30.55,SE,138,4.0,7.0,96,0.00,,,0.00,0.000000,,2013-10-09 09:10:00,
2013-10-09 05:43:00,48.0,47.0,30.55,SE,138,4.0,7.0,96,0.00,,,0.00,0.000000,,2013-10-09 09:43:00,
2013-10-09 05:53:00,48.0,47.0,30.55,SE,138,4.0,7.0,96,0.00,,,0.00,0.000000,,2013-10-09 09:53:00,
2013-10-09 06:03:00,48.0,47.0,30.55,SE,138,4.0,7.0,96,0.00,,,0.00,0.000000,,2013-10-09 10:03:00,
2013-10-09 06:10:00,45.0,44.0,30.53,NE,49,1.0,5.0,96,0.00,,,0.00,0.000000,,2013-10-09 10:10:00,
2013-10-09 06:43:00,45.0,44.0,30.53,NE,49,1.0,5.0,96,0.00,,,0.00,0.000000,,2013-10-09 10:43:00,
2013-10-09 06:53:00,45.0,44.0,30.53,NE,49,1.0,5.0,96,0.00,,,0.00,0.000000,,2013-10-09 10:53:00,
2013-10-09 07:02:00,45.0,44.0,30.53,NE,49,1.0,5.0,96,0.00,,,0.00,0.000000,,2013-10-09 11:02:00,
2013-10-09 07:10:00,46.0,45.0,30.52,East,85,1.0,4.0,96,0.00,,,0.00,0.000000,,2013-10-09 11:10:00,
2013-10-09 07:42:00,46.0,45.0,30.52,East,85,1.0,4.0,96,0.00,,,0.00,0.000000,,2013-10-09 11:42:00,
2013-10-09 07:52:00,46.0,45.0,30.52,East,85,1.0,4.0,96,0.00,,,0.00,0.000000,,2013-10-09 11:52:00,
2013-10-09 08:01:00,46.0,45.0,30.52,East,85,1.0,4.0,96,0.00,,,0.00,0.000000,,2013-10-09 12:01:00,
2013-10-09 08:10:00,45.0,44.0,30.56,ESE,120,2.0,8.0,96,0.00,,,0.00,4.000000,,2013-10-09 12:10:00,
2013-10-09 08:42:00,45.0,44.0,30.56,ESE,120,2.0,8.0,96,0.00,,,0.00,4.000000,,2013-10-09 12:42:00,
2013-10-09 08:52:00,45.0,44.0,30.56,ESE,120,2.0,8.0,96,0.00,,,0.00,4.000000,,2013-10-09 12:52:00,
2013-10-09 09:02:00,45.0,44.0,30.56,ESE,120,2.0,8.0,96,0.00,,,0.00,4.000000,,2013-10-09 13:02:00,
2013-10-09 09:10:00,50.0,49.0,30.66,ESE,118,1.0,3.0,96,0.00,,,0.00,56.000000,,2013-10-09 13:10:00,
2013-10-09 09:42:00,50.0,49.0,30.66,ESE,118,1.0,3.0,96,0.00,,,0.00,56.000000,,2013-10-09 13:42:00,
2013-10-09 09:52:00,50.0,49.0,30.66,ESE,118,1.0,3.0,96,0.00,,,0.00,56.000000,,2013-10-09 13:52:00,
2013-10-09 10:02:00,50.0,49.0,30.66,ESE,118,1.0,3.0,96,0.00,,,0.00,56.000000,,2013-10-09 14:02:00,
2013-10-09 18:10:00,68.0,56.0,29.97,NNE,16,3.0,7.0,65,-99.99,,,0.00,199.000000,,2013-10-09 22:10:00,
2013-10-09 18:43:00,68.0,56.0,29.97,NNE,16,3.0,7.0,65,-99.99,,,0.00,199.000000,,2013-10-09 22:43:00,
2013-10-09 18:53:00,68.0,56.0,29.97,NNE,16,3.0,7.0,65,-99.99,,,0.00,199.000000,,2013-10-09 22:53:00,
2013-10-09 19:03:00,68.0,56.0,29.97,NNE,16,3.0,7.0,65,-99.99,,,0.00,199.000000,,2013-10-09 23:03:00,
2013-10-09 19:10:00,64.0,54.0,29.97,NE,35,2.0,8.0,69,0.00,,,0.00,38.000000,,2013-10-09 23:10:00,
2013-10-09 19:43:00,64.0,54.0,29.97,NE,35,2.0,8.0,69,0.00,,,0.00,38.000000,,2013-10-09 23:43:00,
2013-10-09 19:53:00,64.0,54.0,29.97,NE,35,2.0,8.0,69,0.00,,,0.00,38.000000,,2013-10-09 23:53:00,
2013-10-09 20:02:00,64.0,54.0,29.97,NE,35,2.0,8.0,69,0.00,,,0.00,38.000000,,2013-10-10 00:02:00,
2013-10-09 20:10:00,58.0,52.0,30.02,North,10,1.0,5.0,80,0.00,,,0.00,0.000000,,2013-10-10 00:10:00,
2013-10-09 20:42:00,58.0,52.0,30.02,North,10,1.0,5.0,80,0.00,,,0.00,0.000000,,2013-10-10 00:42:00,
2013-10-09 20:52:00,58.0,52.0,30.02,North,10,1.0,5.0,80,0.00,,,0.00,0.000000,,2013-10-10 00:52:00,
2013-10-09 21:02:00,58.0,52.0,30.02,North,10,1.0,5.0,80,0.00,,,0.00,0.000000,,2013-10-10 01:02:00,
2013-10-09 21:10:00,58.0,53.0,30.26,NE,47,1.0,6.0,84,0.00,,,0.00,0.000000,,2013-10-10 01:10:00,
2013-10-09 21:42:00,58.0,53.0,30.26,NE,47,1.0,6.0,84,0.00,,,0.00,0.000000,,2013-10-10 01:42:00,
2013-10-09 21:52:00,58.0,53.0,30.26,NE,47,1.0,6.0,84,0.00,,,0.00,0.000000,,2013-10-10 01:52:00,
2013-10-09 22:02:00,58.0,53.0,30.26,NE,47,1.0,6.0,84,0.00,,,0.00,0.000000,,2013-10-10 02:02:00,
2013-10-09 22:10:00,56.0,53.0,30.38,NE,37,1.0,5.0,89,0.00,,,0.00,0.000000,,2013-10-10 02:10:00,
2013-10-09 22:52:00,56.0,53.0,30.38,NE,37,1.0,5.0,89,0.00,,,0.00,0.000000,,2013-10-10 02:52:00,
2013-10-09 23:02:00,56.0,53.0,30.38,NE,37,1.0,5.0,89,0.00,,,0.00,0.000000,,2013-10-10 03:02:00,
2013-10-09 23:10:00,56.0,54.0,30.49,SSE,150,3.0,7.0,92,0.00,,,0.00,0.000000,,2013-10-10 03:10:00,
2013-10-09 23:44:00,56.0,54.0,30.49,SSE,150,3.0,7.0,92,0.00,,,0.00,0.000000,,2013-10-10 03:44:00,
2013-10-09 23:55:00,56.0,54.0,30.49,SSE,150,3.0,7.0,92,0.00,,,0.00,0.000000,,2013-10-10 03:55:00,